Jackson, TN

1:24 PM CDT on September 18, 2019 (GMT -0500)
McKellar-Sipes Regional

Weather History for KMKL - July, 2019

Change the Weather History Date:

Wednesday, July 10, 2019

  Actual Average Record
Temperature  
Mean Temperature 84 °F 80 °F  
Max Temperature 94 °F 91 °F 102 °F (1969)
Min Temperature 74 °F 69 °F 52 °F (1996)
Degree Days  
Heating Degree Days 0 0  
Month to date heating degree days 0 0  
Since 1 June heating degree days 1 2  
Since 1 July heating degree days 0 0  
Cooling Degree Days 19 15  
Month to date cooling degree days 172 143  
Year to date cooling degree days 753 697  
Since 1 June cooling degree days 493 482  
Growing Degree Days 33 (Base 50)    
Moisture  
Dew Point 75 °F    
Average Humidity 78    
Maximum Humidity 100    
Minimum Humidity 56    
Precipitation  
Precipitation 1.67 in 0.15 in 1.67 in (2019)
Month to date precipitation 2.11 1.46  
Year to date precipitation 34.93 29.84  
Sea Level Pressure  
Sea Level Pressure 29.99 in    
Wind  
Wind Speed 4 mph (NNW)    
Max Wind Speed 26 mph    
Max Gust Speed 37 mph    
Visibility 6 miles    
Events Fog , Rain , Thunderstorm    
T = Trace of Precipitation, MM = Missing Value Source: NWS Daily Summary

Daily Weather History Graph

Daily Weather History Graph

Search for Another Location

Airport or City:

Astronomy

Jul. 10, 2019 Rise Set
Actual Time 5:48 AM CDT 8:13 PM CDT
Civil Twilight 5:18 AM CDT 8:43 PM CDT
Nautical Twilight 4:42 AM CDT 9:19 PM CDT
Astronomical Twilight 4:02 AM CDT 9:59 PM CDT
Moon 2:27 PM CDT (7/10) 1:18 AM CDT (7/10)
Length of Visible Light 15h 24m
Length of Day
14h 25m
Waxing Gibbous, 64% of the Moon is Illuminated
Jul 10
Waxing Gibbous
Jul 16
Full
Jul 24
Last Quarter
Jul 31
New
Aug 7
First Quarter

Hourly Weather History & Observations

Time (CDT) Temp. Heat Index Dew Point Humidity Pressure Visibility Wind Dir Wind Speed Gust Speed Precip Events Conditions
12:53 AM 78.1 °F - 75.9 °F 93% 29.97 in 8.0 mi Calm Calm - N/A   Overcast
1:53 AM 77.0 °F - 75.0 °F 94% 29.95 in 10.0 mi SSW 3.5 mph - N/A   Partly Cloudy
2:53 AM 77.0 °F - 75.9 °F 96% 29.95 in 8.0 mi Calm Calm - N/A   Scattered Clouds
3:53 AM 75.9 °F - 75.0 °F 97% 29.96 in 9.0 mi WSW 3.5 mph - N/A   Overcast
4:53 AM 75.9 °F - 75.0 °F 97% 29.96 in 7.0 mi Calm Calm - N/A   Clear
5:53 AM 75.0 °F - 73.9 °F 96% 29.99 in 4.0 mi Calm Calm - N/A   Clear
6:53 AM 77.0 °F - 75.9 °F 96% 30.00 in 6.0 mi Calm Calm - N/A   Clear
7:53 AM 79.0 °F - 75.9 °F 90% 30.01 in 10.0 mi Calm Calm - N/A   Overcast
8:53 AM 81.0 °F 87.9 °F 77.0 °F 88% 30.01 in 10.0 mi Calm Calm - N/A   Mostly Cloudy
9:53 AM 84.0 °F 94.8 °F 78.1 °F 82% 30.02 in 10.0 mi Calm Calm - N/A   Mostly Cloudy
10:53 AM 87.1 °F 99.8 °F 78.1 °F 74% 30.01 in 10.0 mi SSE 3.5 mph - N/A   Clear
11:53 AM 91.0 °F 107.6 °F 79.0 °F 68% 30.01 in 10.0 mi NNW 3.5 mph - N/A   Partly Cloudy
12:53 PM 93.0 °F 106.7 °F 77.0 °F 59% 29.99 in 10.0 mi North 5.8 mph - N/A   Partly Cloudy
1:53 PM 93.0 °F 106.7 °F 77.0 °F 59% 29.96 in 10.0 mi ENE 4.6 mph - N/A   Clear
2:53 PM 93.9 °F 106.9 °F 75.9 °F 56% 29.94 in 10.0 mi SSW 4.6 mph - N/A   Partly Cloudy
3:16 PM 91.0 °F 102.9 °F 75.9 °F 61% 29.95 in 10.0 mi SSE 3.5 mph - N/A Thunderstorm Mostly Cloudy
3:40 PM 82.0 °F 89.4 °F 75.9 °F 82% 29.98 in 2.5 mi NNE 8.1 mph - 0.04 in Rain , Thunderstorm Thunderstorms and Rain
3:44 PM 80.1 °F 85.1 °F 75.0 °F 85% 29.99 in 1.2 mi North 10.4 mph 18.4 mph 0.09 in Rain , Thunderstorm Thunderstorms and Rain
3:48 PM 78.8 °F - 75.2 °F 89% 30.01 in 0.8 mi North 25.3 mph 36.8 mph 0.30 in Rain , Thunderstorm Heavy Thunderstorms and Rain
3:51 PM 77.0 °F - 75.2 °F 94% 30.00 in 0.5 mi NNW 20.7 mph 36.8 mph 0.43 in Fog , Rain , Thunderstorm Heavy Thunderstorms and Rain
3:58 PM 77.0 °F - 75.9 °F 96% 30.00 in 0.5 mi North 21.9 mph 31.1 mph 0.09 in Fog , Rain , Thunderstorm Heavy Thunderstorms and Rain
4:01 PM 77.0 °F - 75.9 °F 96% 30.00 in 0.5 mi NNE 18.4 mph 31.1 mph 0.17 in Fog , Rain , Thunderstorm Heavy Thunderstorms and Rain
4:20 PM 75.9 °F - 75.0 °F 97% 30.02 in 1.2 mi WNW 9.2 mph - 0.51 in Rain , Thunderstorm Thunderstorms and Rain
4:27 PM 75.9 °F - 75.0 °F 97% 30.01 in 0.8 mi WNW 8.1 mph - 0.61 in Rain , Thunderstorm Heavy Thunderstorms and Rain
4:51 PM 73.4 °F - 73.4 °F 100% 30.02 in 1.0 mi Calm Calm - 0.88 in Rain , Thunderstorm Heavy Thunderstorms and Rain
4:52 PM 73.9 °F - 73.0 °F 97% 30.01 in 1.0 mi Calm Calm - 0.89 in Rain , Thunderstorm Heavy Thunderstorms and Rain
5:01 PM 73.9 °F - 73.0 °F 97% 30.02 in 3.0 mi Calm Calm - 0.03 in Rain , Thunderstorm Thunderstorms and Rain
5:19 PM 73.9 °F - 73.9 °F 100% 29.99 in 7.0 mi South 4.6 mph - 0.05 in Rain , Thunderstorm Light Rain
5:38 PM 75.0 °F - 73.9 °F 96% 29.99 in 10.0 mi South 8.1 mph - 0.06 in Thunderstorm Thunderstorm
5:47 PM 75.2 °F - 73.4 °F 94% 29.99 in 10.0 mi NW 9.2 mph - 0.06 in Thunderstorm Scattered Clouds
5:53 PM 75.0 °F - 73.9 °F 96% 29.97 in 10.0 mi Variable 5.8 mph - 0.06 in Thunderstorm Partly Cloudy
6:03 PM 73.9 °F - 73.9 °F 100% 29.99 in 10.0 mi NNW 4.6 mph - N/A   Partly Cloudy
6:11 PM 73.9 °F - 73.0 °F 97% 29.99 in 10.0 mi NNW 4.6 mph - N/A Thunderstorm Partly Cloudy
6:26 PM 75.0 °F - 73.9 °F 96% 30.00 in 10.0 mi North 5.8 mph - 0.00 in Rain Light Rain
6:37 PM 75.0 °F - 73.9 °F 96% 30.00 in 6.0 mi NNW 4.6 mph - 0.01 in Rain , Thunderstorm Rain
6:46 PM 75.0 °F - 73.9 °F 96% 30.01 in 2.5 mi Calm Calm - 0.04 in Rain , Thunderstorm Thunderstorms and Rain
6:53 PM 75.0 °F - 73.9 °F 96% 30.00 in 2.5 mi Calm Calm - 0.05 in Rain , Thunderstorm Thunderstorms and Rain
7:03 PM 75.0 °F - 73.9 °F 96% 30.01 in 2.5 mi NNW 3.5 mph - 0.03 in Rain Rain
7:06 PM 75.0 °F - 73.9 °F 96% 30.01 in 3.0 mi NNW 3.5 mph - 0.04 in Rain , Thunderstorm Light Rain
7:25 PM 75.0 °F - 73.9 °F 96% 30.01 in 4.0 mi WNW 4.6 mph - 0.07 in Rain Light Rain
7:37 PM 75.0 °F - 73.9 °F 96% 30.01 in 7.0 mi NW 6.9 mph - 0.08 in Rain Light Rain
7:53 PM 75.0 °F - 73.9 °F 96% 29.99 in 10.0 mi NNW 6.9 mph - 0.09 in Rain Light Rain
8:53 PM 73.9 °F - 73.9 °F 100% 29.92 in 10.0 mi ESE 5.8 mph - 0.01 in   Clear
9:53 PM 75.0 °F - 73.9 °F 96% 29.90 in 10.0 mi South 8.1 mph - N/A   Clear
10:53 PM 75.0 °F - 73.9 °F 96% 29.96 in 10.0 mi NNW 8.1 mph - 0.00 in   Partly Cloudy
11:24 PM 75.0 °F - 73.9 °F 96% 29.99 in 10.0 mi Calm Calm - N/A   Partly Cloudy
11:53 PM 75.0 °F - 75.0 °F 100% 29.96 in 8.0 mi NNW 3.5 mph - N/A   Scattered Clouds